Voltar ao catálogo

FLOCK 4BE 24

AtivoCiênciaSSO
NORAD 60505·PAYLOAD·🇺🇸 United States

Lançado Aug 16, 2024 de Vandenberg Space Force Base

Loading…

Próximas Passagens (próximas 24 horas)

TLE

AtualizadoSource: CelesTrak SupGP

Época: Sep 14, 2026, 18:45 UTC

1 60505C 24149AY  26257.78149306  .00040467  00000+0  81195-3 0  2570
2 60505  97.3663 343.4695 0002617 326.3855 160.9444 15.46683027    15

Acompanhe FLOCK 4BE 24 em tempo real com AllMySat

Download on the App Store